| time (UTC) | temp C | wind direction | speed KPH | gust KPH | rain 1hr cm | rain 24hr cm | rain mn cm | humidity % | barometer mb |
| 20260831174619 | 29 | 252 | 4.8 | 11.3 | 0.00 | 0.00 | 0.00 | 71 | 1013.8 |
| 20260831174118 | 29 | 255 | 4.8 | 11.3 | 0.00 | 0.00 | 0.00 | 71 | 1013.8 |
| 20260831173619 | 29 | 282 | 4.8 | 11.3 | 0.00 | 0.00 | 0.00 | 73 | 1013.6 |
| 20260831173118 | 29 | 257 | 4.8 | 12.9 | 0.00 | 0.00 | 0.00 | 72 | 1013.6 |
| 20260831172617 | 29 | 261 | 6.4 | 12.9 | 0.00 | 0.00 | 0.00 | 72 | 1013.7 |
| 20260831172117 | 29 | 221 | 3.2 | 11.3 | 0.00 | 0.00 | 0.00 | 72 | 1013.6 |
| 20260831171618 | 29 | 265 | 3.2 | 9.7 | 0.00 | 0.00 | 0.00 | 74 | 1013.6 |
| 20260831171119 | 29 | 259 | 3.2 | 9.7 | 0.00 | 0.00 | 0.00 | 69 | 1013.7 |
| 20260831170617 | 29 | 305 | 3.2 | 9.7 | 0.00 | 0.00 | 0.00 | 72 | 1013.6 |
| 20260831165617 | 28 | 303 | 3.2 | 12.9 | 0.00 | 0.00 | 0.00 | 75 | 1013.5 |
| 20260831165116 | 28 | 15 | 4.8 | 12.9 | 0.00 | 0.00 | 0.00 | 74 | 1013.4 |
| 20260831164616 | 28 | 328 | 6.4 | 16.1 | 0.00 | 0.00 | 0.00 | 75 | 1013.4 |
| 20260831164116 | 28 | 25 | 3.2 | 16.1 | 0.00 | 0.00 | 0.00 | 77 | 1013.4 |
| 20260831163616 | 27 | 9 | 3.2 | 11.3 | 0.00 | 0.00 | 0.00 | 76 | 1013.5 |
| 20260831163116 | 27 | 309 | 3.2 | 11.3 | 0.00 | 0.00 | 0.00 | 77 | 1013.6 |
| 20260831162615 | 27 | 262 | 4.8 | 11.3 | 0.00 | 0.00 | 0.00 | 75 | 1013.6 |
| 20260831162116 | 27 | 309 | 3.2 | 11.3 | 0.00 | 0.00 | 0.00 | 76 | 1013.6 |
| 20260831161615 | 27 | 309 | 3.2 | 9.7 | 0.00 | 0.00 | 0.00 | 76 | 1013.5 |
| 20260831161117 | 27 | 9 | 3.2 | 9.7 | 0.00 | 0.00 | 0.00 | 76 | 1013.4 |
| 20260831160611 | 27 | 229 | 3.2 | 16.1 | 0.00 | 0.00 | 0.00 | 75 | 1012.9 |
| 20260831160109 | 28 | 291 | 3.2 | 16.1 | 0.00 | 0.00 | 0.00 | 74 | 1012.8 |
| 20260831155609 | 28 | 257 | 3.2 | 14.5 | 0.00 | 0.00 | 0.00 | 75 | 1012.7 |
| 20260831154609 | 28 | 272 | 4.8 | 14.5 | 0.00 | 0.00 | 0.00 | 77 | 1012.7 |
| 20260831154109 | 27 | 280 | 3.2 | 9.7 | 0.00 | 0.00 | 0.00 | 78 | 1012.6 |
| 20260831153609 | 27 | 265 | 3.2 | 9.7 | 0.00 | 0.00 | 0.00 | 79 | 1012.5 |
| 20260831153108 | 27 | 265 | 1.6 | 8.0 | 0.00 | 0.00 | 0.00 | 82 | 1012.6 |
| 20260831152609 | 26 | 281 | 3.2 | 8.0 | 0.00 | 0.00 | 0.00 | 84 | 1012.7 |
| 20260831152108 | 26 | 312 | 1.6 | 6.4 | 0.00 | 0.00 | 0.00 | 85 | 1012.7 |
| 20260831151108 | 25 | 9 | 4.8 | 8.0 | 0.00 | 0.00 | 0.00 | 86 | 1012.5 |
| 20260831150608 | 25 | 23 | 4.8 | 8.0 | 0.00 | 0.00 | 0.00 | 87 | 1012.5 |
| 20260831150108 | 24 | 341 | 3.2 | 8.0 | 0.00 | 0.00 | 0.00 | 87 | 1012.6 |
| 20260831145107 | 24 | 251 | 3.2 | 6.4 | 0.00 | 0.00 | 0.00 | 88 | 1012.7 |
| 20260831144103 | 23 | 19 | 3.2 | 6.4 | 0.00 | 0.00 | 0.00 | 89 | 1012.4 |
| 20260831143602 | 23 | 9 | 3.2 | 4.8 | 0.00 | 0.00 | 0.00 | 88 | 1012.1 |
| 20260831143103 | 23 | 51 | 3.2 | 4.8 | 0.00 | 0.00 | 0.00 | 89 | 1011.9 |
| 20260831142102 | 23 | 286 | 4.8 | 14.5 | 0.00 | 0.00 | 0.00 | 89 | 1012.3 |
| 20260831141602 | 23 | 217 | 9.7 | 14.5 | 0.00 | 0.00 | 0.00 | 89 | 1012.6 |
| 20260831141103 | 23 | 284 | 3.2 | 14.5 | 0.00 | 0.00 | 0.00 | 90 | 1011.9 |
| 20260831135602 | 22 | 165 | 8.0 | 29.0 | 0.00 | 0.00 | 0.00 | 90 | 1010.8 |
| 20260831135102 | 22 | 347 | 14.5 | 32.2 | 0.00 | 0.00 | 0.00 | 90 | 1009.8 |
| 20260831134602 | 22 | 25 | 14.5 | 32.2 | 0.00 | 0.00 | 0.00 | 90 | 1010.0 |
| 20260831134100 | 22 | 342 | 11.3 | 22.5 | 0.00 | 0.00 | 0.00 | 90 | 1011.9 |
| 20260831133101 | 22 | 282 | 6.4 | 17.7 | 0.00 | 0.00 | 0.00 | 90 | 1012.6 |
| 20260831132559 | 22 | 316 | 6.4 | 16.1 | 0.00 | 0.00 | 0.00 | 90 | 1012.2 |
| 20260831132100 | 23 | 311 | 4.8 | 11.3 | 0.00 | 0.00 | 0.00 | 90 | 1012.5 |
| 20260831131600 | 23 | 259 | 8.0 | 11.3 | 0.00 | 0.00 | 0.00 | 90 | 1013.4 |
| 20260831131100 | 23 | 291 | 0.0 | 3.2 | 0.00 | 0.00 | 0.00 | 90 | 1012.7 |
| 20260831130558 | 22 | 221 | 0.0 | 3.2 | 0.00 | 0.00 | 0.00 | 90 | 1012.5 |
| 20260831130059 | 22 | 51 | 1.6 | 4.8 | 0.00 | 0.00 | 0.00 | 90 | 1012.5 |
| 20260831125558 | 22 | 325 | 1.6 | 4.8 | 0.00 | 0.00 | 0.00 | 90 | 1012.7 |
| 20260831125058 | 22 | 115 | 1.6 | 4.8 | 0.00 | 0.00 | 0.00 | 90 | 1012.5 |
| 20260831122547 | 22 | 9 | 0.0 | 3.2 | 0.00 | 0.00 | 0.00 | 90 | 1011.8 |
| 20260831122046 | 22 | 265 | 1.6 | 3.2 | 0.00 | 0.00 | 0.00 | 90 | 1011.7 |
| 20260831121546 | 22 | 265 | 0.0 | 3.2 | 0.00 | 0.00 | 0.00 | 90 | 1011.7 |
| 20260831121047 | 22 | 250 | 1.6 | 3.2 | 0.00 | 0.00 | 0.00 | 90 | 1011.6 |
| 20260831120547 | 22 | 221 | 0.0 | 3.2 | 0.00 | 0.00 | 0.00 | 91 | 1011.3 |
| 20260831120046 | 22 | 34 | 0.0 | 1.6 | 0.00 | 0.00 | 0.00 | 91 | 1011.3 |
| 20260831115546 | 22 | 9 | 0.0 | 1.6 | 0.00 | 0.00 | 0.00 | 90 | 1011.1 |
| 20260831115046 | 22 | 9 | 0.0 | 1.6 | 0.00 | 0.00 | 0.00 | 90 | 1011.1 |
| 20260831114045 | 22 | 325 | 0.0 | 1.6 | 0.00 | 0.00 | 0.00 | 90 | 1010.9 |
| 20260831113044 | 22 | 51 | 3.2 | 3.2 | 0.00 | 0.00 | 0.00 | 90 | 1010.7 |
| 20260831112545 | 22 | 51 | 0.0 | 3.2 | 0.00 | 0.00 | 0.00 | 90 | 1010.6 |
| 20260831112045 | 22 | 26 | 0.0 | 3.2 | 0.00 | 0.00 | 0.00 | 90 | 1010.7 |
| 20260831111544 | 22 | 298 | 0.0 | 3.2 | 0.00 | 0.00 | 0.00 | 90 | 1010.5 |
| 20260831111044 | 22 | 137 | 1.6 | 4.8 | 0.00 | 0.00 | 0.00 | 90 | 1010.4 |
| 20260831110543 | 22 | 126 | 1.6 | 6.4 | 0.00 | 0.00 | 0.00 | 90 | 1010.3 |
| 20260831105545 | 22 | 76 | 1.6 | 3.2 | 0.00 | 0.00 | 0.00 | 90 | 1010.4 |
| 20260831104543 | 22 | 153 | 0.0 | 1.6 | 0.00 | 0.00 | 0.00 | 90 | 1010.4 |
| 20260831103543 | 22 | 221 | 0.0 | 3.2 | 0.00 | 0.00 | 0.00 | 90 | 1010.3 |
| 20260831103043 | 22 | 165 | 1.6 | 3.2 | 0.00 | 0.00 | 0.00 | 90 | 1010.4 |
| 20260831102542 | 22 | 298 | 0.0 | 1.6 | 0.00 | 0.00 | 0.00 | 90 | 1010.2 |
| 20260831102043 | 22 | 265 | 0.0 | 3.2 | 0.00 | 0.00 | 0.00 | 90 | 1010.2 |
| 20260831101041 | 22 | 178 | 0.0 | 4.8 | 0.00 | 0.00 | 0.00 | 90 | 1010.3 |
| 20260831100036 | 22 | 103 | 0.0 | 3.2 | 0.00 | 0.00 | 0.00 | 90 | 1009.9 |
| 20260831095536 | 22 | 93 | 0.0 | 3.2 | 0.00 | 0.00 | 0.00 | 90 | 1010.0 |
| 20260831095035 | 22 | 41 | 0.0 | 3.2 | 0.00 | 0.00 | 0.00 | 90 | 1010.0 |
| 20260831094535 | 22 | 221 | 0.0 | 3.2 | 0.00 | 0.00 | 0.00 | 90 | 1010.0 |
| 20260831094035 | 22 | 51 | 0.0 | 3.2 | 0.00 | 0.00 | 0.00 | 90 | 1010.0 |
| 20260831093535 | 22 | 9 | 1.6 | 6.4 | 0.00 | 0.00 | 0.00 | 90 | 1009.9 |
| 20260831093030 | 22 | 9 | 1.6 | 6.4 | 0.00 | 0.00 | 0.00 | 90 | 1009.8 |
| 20260831092529 | 22 | 148 | 3.2 | 6.4 | 0.00 | 0.00 | 0.00 | 90 | 1009.9 |
| 20260831092031 | 22 | 309 | 0.0 | 1.6 | 0.00 | 0.00 | 0.00 | 90 | 1009.8 |
| 20260831091514 | 22 | 334 | 0.0 | 3.2 | 0.00 | 0.00 | 0.00 | 90 | 1009.7 |
| 20260831091014 | 22 | 9 | 0.0 | 3.2 | 0.00 | 0.00 | 0.00 | 90 | 1009.7 |
| 20260831090513 | 22 | 108 | 1.6 | 4.8 | 0.00 | 0.00 | 0.00 | 90 | 1009.7 |
| 20260831085513 | 22 | 9 | 0.0 | 3.2 | 0.00 | 0.00 | 0.00 | 90 | 1009.8 |
| 20260831085013 | 22 | 51 | 0.0 | 3.2 | 0.00 | 0.00 | 0.00 | 90 | 1009.8 |
| 20260831084513 | 22 | 325 | 0.0 | 1.6 | 0.00 | 0.00 | 0.00 | 90 | 1009.8 |
| 20260831084013 | 22 | 309 | 0.0 | 4.8 | 0.00 | 0.00 | 0.00 | 90 | 1009.6 |
| 20260831083512 | 22 | 137 | 1.6 | 4.8 | 0.00 | 0.00 | 0.00 | 90 | 1009.5 |
| 20260831083013 | 22 | 221 | 1.6 | 4.8 | 0.00 | 0.00 | 0.00 | 90 | 1009.5 |
| 20260831082512 | 22 | 282 | 1.6 | 4.8 | 0.00 | 0.00 | 0.00 | 90 | 1009.2 |
| 20260831082013 | 22 | 16 | 3.2 | 3.2 | 0.00 | 0.00 | 0.00 | 90 | 1009.3 |
| 20260831081512 | 22 | 9 | 0.0 | 3.2 | 0.00 | 0.00 | 0.00 | 89 | 1009.3 |
| 20260831081012 | 22 | 137 | 0.0 | 3.2 | 0.00 | 0.00 | 0.00 | 90 | 1009.1 |
| 20260831080512 | 22 | 119 | 1.6 | 3.2 | 0.00 | 0.00 | 0.00 | 90 | 1009.3 |
| 20260831080012 | 22 | 265 | 1.6 | 1.6 | 0.00 | 0.00 | 0.00 | 89 | 1009.4 |
| 20260831075511 | 22 | 265 | 0.0 | 1.6 | 0.00 | 0.00 | 0.00 | 89 | 1009.3 |
| 20260831075012 | 22 | 34 | 0.0 | 1.6 | 0.00 | 0.00 | 0.00 | 89 | 1009.2 |
| 20260831074501 | 22 | 93 | 0.0 | 3.2 | 0.00 | 0.00 | 0.00 | 89 | 1009.2 |
| 20260831073956 | 22 | 34 | 1.6 | 3.2 | 0.00 | 0.00 | 0.00 | 90 | 1009.2 |
| 20260831073457 | 22 | 9 | 0.0 | 3.2 | 0.00 | 0.00 | 0.00 | 89 | 1009.3 |
| 20260831072951 | 23 | 108 | 1.6 | 4.8 | 0.00 | 0.00 | 0.00 | 89 | 1009.3 |
| 20260831072451 | 23 | 115 | 1.6 | 4.8 | 0.00 | 0.00 | 0.00 | 89 | 1009.3 |
| 20260831071950 | 23 | 126 | 1.6 | 4.8 | 0.00 | 0.00 | 0.00 | 89 | 1009.2 |
| 20260831071450 | 23 | 137 | 0.0 | 4.8 | 0.00 | 0.00 | 0.00 | 89 | 1009.2 |
| 20260831070945 | 23 | 117 | 3.2 | 4.8 | 0.00 | 0.00 | 0.00 | 89 | 1009.3 |
| 20260831070445 | 23 | 111 | 1.6 | 4.8 | 0.00 | 0.00 | 0.00 | 89 | 1009.4 |
| 20260831065445 | 23 | 196 | 1.6 | 3.2 | 0.00 | 0.00 | 0.00 | 89 | 1009.5 |
| 20260831064944 | 23 | 137 | 1.6 | 3.2 | 0.00 | 0.00 | 0.00 | 89 | 1009.5 |
| 20260831063944 | 23 | 338 | 0.0 | 3.2 | 0.00 | 0.00 | 0.00 | 88 | 1009.5 |
| 20260831063444 | 23 | 334 | 0.0 | 3.2 | 0.00 | 0.00 | 0.00 | 88 | 1009.5 |
| 20260831062443 | 23 | 284 | 1.6 | 3.2 | 0.00 | 0.00 | 0.00 | 88 | 1009.7 |
| 20260831060944 | 23 | 162 | 0.0 | 3.2 | 0.00 | 0.00 | 0.00 | 88 | 1009.5 |
| 20260831055943 | 23 | 178 | 0.0 | 3.2 | 0.00 | 0.00 | 0.00 | 87 | 1009.5 |
| 20260831055443 | 23 | 137 | 0.0 | 3.2 | 0.00 | 0.00 | 0.00 | 87 | 1009.5 |
| 20260831054943 | 23 | 34 | 0.0 | 3.2 | 0.00 | 0.00 | 0.00 | 87 | 1009.4 |
| 20260831054442 | 24 | 298 | 1.6 | 3.2 | 0.00 | 0.00 | 0.00 | 87 | 1009.2 |
| 20260831053943 | 24 | 119 | 1.6 | 3.2 | 0.00 | 0.00 | 0.00 | 87 | 1009.2 |
| 20260831052938 | 24 | 9 | 0.0 | 1.6 | 0.00 | 0.00 | 0.00 | 86 | 1009.3 |
| 20260831052435 | 24 | 153 | 0.0 | 3.2 | 0.00 | 0.00 | 0.00 | 86 | 1009.2 |
| 20260831051934 | 24 | 51 | 0.0 | 3.2 | 0.00 | 0.00 | 0.00 | 86 | 1009.1 |
| 20260831051434 | 24 | 215 | 1.6 | 4.8 | 0.00 | 0.00 | 0.00 | 86 | 1009.2 |
| 20260831050934 | 24 | 205 | 0.0 | 4.8 | 0.00 | 0.00 | 0.00 | 86 | 1009.1 |
| 20260831050433 | 24 | 291 | 1.6 | 3.2 | 0.00 | 0.00 | 0.00 | 86 | 1009.0 |
| 20260831045934 | 25 | 178 | 1.6 | 3.2 | 0.00 | 0.00 | 0.00 | 85 | 1009.0 |
| 20260831045434 | 25 | 34 | 1.6 | 6.4 | 0.00 | 0.00 | 0.00 | 85 | 1009.1 |
| 20260831044935 | 25 | 279 | 1.6 | 6.4 | 0.00 | 0.00 | 0.00 | 85 | 1009.2 |
| 20260831044433 | 25 | 293 | 1.6 | 6.4 | 0.00 | 0.00 | 0.00 | 84 | 1009.3 |
| 20260831043934 | 25 | 282 | 1.6 | 8.0 | 0.00 | 0.00 | 0.00 | 84 | 1009.2 |
| 20260831043434 | 25 | 338 | 3.2 | 8.0 | 0.00 | 0.00 | 0.00 | 83 | 1009.0 |
| 20260831042933 | 25 | 330 | 0.0 | 1.6 | 0.00 | 0.00 | 0.00 | 82 | 1009.0 |
| 20260831042432 | 25 | 298 | 0.0 | 1.6 | 0.00 | 0.00 | 0.00 | 82 | 1009.0 |
| 20260831041933 | 26 | 119 | 0.0 | 4.8 | 0.00 | 0.00 | 0.00 | 82 | 1009.0 |
| 20260831041433 | 26 | 196 | 1.6 | 4.8 | 0.00 | 0.00 | 0.00 | 81 | 1009.0 |
| 20260831040933 | 26 | 165 | 0.0 | 3.2 | 0.00 | 0.00 | 0.00 | 80 | 1009.1 |
| 20260831040432 | 26 | 212 | 0.0 | 1.6 | 0.00 | 0.00 | 0.00 | 80 | 1009.1 |
| 20260831035934 | 26 | 309 | 0.0 | 3.2 | 0.00 | 0.00 | 0.00 | 80 | 1009.1 |
| 20260831034932 | 26 | 137 | 0.0 | 3.2 | 0.00 | 0.00 | 0.00 | 80 | 1009.1 |
| 20260831034432 | 26 | 126 | 1.6 | 4.8 | 0.00 | 0.00 | 0.00 | 80 | 1009.3 |
| 20260831033932 | 26 | 119 | 3.2 | 4.8 | 0.00 | 0.00 | 0.00 | 80 | 1009.4 |
| 20260831033432 | 26 | 103 | 3.2 | 4.8 | 0.00 | 0.00 | 0.00 | 80 | 1009.4 |
| 20260831032932 | 26 | 137 | 3.2 | 6.4 | 0.00 | 0.00 | 0.00 | 81 | 1009.4 |
| 20260831032430 | 26 | 115 | 3.2 | 6.4 | 0.00 | 0.00 | 0.00 | 81 | 1009.3 |
| 20260831031932 | 26 | 111 | 4.8 | 6.4 | 0.00 | 0.00 | 0.00 | 81 | 1009.2 |
| 20260831030930 | 26 | 103 | 3.2 | 4.8 | 0.00 | 0.00 | 0.00 | 81 | 1009.3 |
| 20260831030431 | 26 | 119 | 3.2 | 6.4 | 0.00 | 0.00 | 0.00 | 81 | 1009.4 |
| 20260831025930 | 26 | 119 | 3.2 | 6.4 | 0.00 | 0.00 | 0.00 | 80 | 1009.4 |
| 20260831024930 | 26 | 137 | 1.6 | 3.2 | 0.00 | 0.00 | 0.00 | 78 | 1009.5 |
| 20260831024429 | 27 | 234 | 1.6 | 3.2 | 0.00 | 0.00 | 0.00 | 78 | 1009.4 |
| 20260831023930 | 27 | 221 | 1.6 | 3.2 | 0.00 | 0.00 | 0.00 | 78 | 1009.5 |
| 20260831023430 | 27 | 137 | 1.6 | 3.2 | 0.00 | 0.00 | 0.00 | 78 | 1009.4 |
| 20260831022929 | 27 | 119 | 3.2 | 3.2 | 0.00 | 0.00 | 0.00 | 78 | 1009.4 |
| 20260831022431 | 27 | 137 | 0.0 | 3.2 | 0.00 | 0.00 | 0.00 | 78 | 1009.4 |
| 20260831021929 | 27 | 291 | 1.6 | 3.2 | 0.00 | 0.00 | 0.00 | 78 | 1009.3 |
| 20260831021429 | 27 | 205 | 3.2 | 3.2 | 0.00 | 0.00 | 0.00 | 78 | 1009.2 |
| 20260831020929 | 27 | 111 | 1.6 | 4.8 | 0.00 | 0.00 | 0.00 | 78 | 1009.2 |
| 20260831015929 | 27 | 117 | 3.2 | 6.4 | 0.00 | 0.00 | 0.00 | 77 | 1009.1 |
| 20260831015428 | 27 | 121 | 3.2 | 6.4 | 0.00 | 0.00 | 0.00 | 77 | 1009.0 |
| 20260831014928 | 27 | 178 | 1.6 | 3.2 | 0.00 | 0.00 | 0.00 | 76 | 1009.1 |
| 20260831013927 | 28 | 111 | 1.6 | 4.8 | 0.00 | 0.00 | 0.00 | 75 | 1008.9 |
| 20260831013427 | 28 | 153 | 1.6 | 6.4 | 0.00 | 0.00 | 0.00 | 74 | 1008.9 |
| 20260831012928 | 28 | 178 | 3.2 | 6.4 | 0.00 | 0.00 | 0.00 | 73 | 1008.9 |
| 20260831012427 | 28 | 119 | 3.2 | 6.4 | 0.00 | 0.00 | 0.00 | 72 | 1008.8 |
| 20260831011927 | 29 | 110 | 3.2 | 4.8 | 0.00 | 0.00 | 0.00 | 69 | 1008.8 |
| 20260831011427 | 29 | 119 | 1.6 | 3.2 | 0.00 | 0.00 | 0.00 | 67 | 1008.8 |
| 20260831010427 | 30 | 119 | 0.0 | 1.6 | 0.00 | 0.00 | 0.00 | 66 | 1008.7 |
| 20260831005428 | 30 | 119 | 0.0 | 3.2 | 0.00 | 0.00 | 0.00 | 64 | 1008.7 |
| 20260831004927 | 30 | 238 | 0.0 | 3.2 | 0.00 | 0.00 | 0.00 | 63 | 1008.6 |
| 20260831004426 | 31 | 196 | 0.0 | 3.2 | 0.00 | 0.00 | 0.00 | 61 | 1008.7 |
| 20260831003425 | 31 | 226 | 1.6 | 4.8 | 0.00 | 0.00 | 0.00 | 61 | 1008.7 |
| 20260831002925 | 31 | 205 | 3.2 | 6.4 | 0.00 | 0.00 | 0.00 | 61 | 1008.7 |
| 20260831002425 | 31 | 234 | 3.2 | 6.4 | 0.00 | 0.00 | 0.00 | 60 | 1008.7 |
| 20260831001924 | 31 | 208 | 3.2 | 8.0 | 0.00 | 0.00 | 0.00 | 60 | 1008.8 |
| 20260831001425 | 31 | 205 | 3.2 | 9.7 | 0.00 | 0.00 | 0.00 | 59 | 1008.7 |
| 20260831000924 | 32 | 219 | 4.8 | 9.7 | 0.00 | 0.00 | 0.00 | 58 | 1008.7 |
| 20260831000425 | 32 | 215 | 4.8 | 9.7 | 0.00 | 0.00 | 0.00 | 58 | 1008.7 |
| 20260830235923 | 32 | 178 | 3.2 | 9.7 | 0.00 | 0.00 | 0.00 | 57 | 1008.7 |
| 20260830235423 | 32 | 230 | 4.8 | 11.3 | 0.00 | 0.00 | 0.00 | 57 | 1008.7 |
| 20260830234923 | 32 | 247 | 3.2 | 11.3 | 0.00 | 0.00 | 0.00 | 58 | 1008.6 |
| 20260830234424 | 33 | 240 | 4.8 | 9.7 | 0.00 | 0.00 | 0.00 | 56 | 1008.7 |
| 20260830233923 | 33 | 243 | 3.2 | 9.7 | 0.00 | 0.00 | 0.00 | 59 | 1008.7 |
| 20260830233423 | 33 | 212 | 4.8 | 9.7 | 0.00 | 0.00 | 0.00 | 58 | 1008.6 |
| 20260830232923 | 33 | 265 | 4.8 | 9.7 | 0.00 | 0.00 | 0.00 | 58 | 1008.7 |
| 20260830232423 | 33 | 238 | 3.2 | 9.7 | 0.00 | 0.00 | 0.00 | 60 | 1008.6 |
| 20260830231925 | 33 | 234 | 4.8 | 11.3 | 0.00 | 0.00 | 0.00 | 59 | 1008.7 |
| 20260830231423 | 33 | 261 | 6.4 | 11.3 | 0.00 | 0.00 | 0.00 | 57 | 1008.6 |
| 20260830230922 | 33 | 208 | 4.8 | 12.9 | 0.00 | 0.00 | 0.00 | 56 | 1008.5 |
| 20260830225922 | 33 | 221 | 4.8 | 16.1 | 0.00 | 0.00 | 0.00 | 56 | 1008.4 |
| 20260830225422 | 32 | 259 | 8.0 | 16.1 | 0.00 | 0.00 | 0.00 | 55 | 1008.4 |
| 20260830224921 | 32 | 243 | 6.4 | 12.9 | 0.00 | 0.00 | 0.00 | 56 | 1008.5 |
| 20260830224421 | 32 | 178 | 8.0 | 12.9 | 0.00 | 0.00 | 0.00 | 55 | 1008.5 |
| 20260830223922 | 32 | 198 | 6.4 | 19.3 | 0.00 | 0.00 | 0.00 | 54 | 1008.6 |
| 20260830222421 | 32 | 171 | 9.7 | 19.3 | 0.00 | 0.00 | 0.00 | 54 | 1008.6 |
| 20260830221923 | 32 | 227 | 6.4 | 17.7 | 0.00 | 0.00 | 0.00 | 54 | 1008.5 |
| 20260830221421 | 32 | 221 | 11.3 | 20.9 | 0.00 | 0.00 | 0.00 | 54 | 1008.4 |
| 20260830220421 | 32 | 219 | 11.3 | 24.1 | 0.00 | 0.00 | 0.00 | 54 | 1008.4 |
| 20260830215920 | 32 | 229 | 11.3 | 24.1 | 0.00 | 0.00 | 0.00 | 53 | 1008.4 |
| 20260830215420 | 32 | 221 | 6.4 | 19.3 | 0.00 | 0.00 | 0.00 | 54 | 1008.4 |
| 20260830212920 | 32 | 216 | 9.7 | 14.5 | 0.00 | 0.00 | 0.00 | 53 | 1008.2 |
| 20260830212419 | 32 | 190 | 6.4 | 17.7 | 0.00 | 0.00 | 0.00 | 55 | 1008.3 |
| 20260830211920 | 32 | 225 | 9.7 | 19.3 | 0.00 | 0.00 | 0.00 | 53 | 1008.3 |
| 20260830211418 | 32 | 166 | 8.0 | 24.1 | 0.00 | 0.00 | 0.00 | 54 | 1008.2 |
| 20260830210919 | 32 | 217 | 9.7 | 25.7 | 0.00 | 0.00 | 0.00 | 54 | 1008.4 |
| 20260830205918 | 31 | 229 | 9.7 | 22.5 | 0.00 | 0.00 | 0.00 | 54 | 1008.7 |
| 20260830205418 | 31 | 200 | 11.3 | 22.5 | 0.00 | 0.00 | 0.00 | 53 | 1008.9 |
| 20260830204918 | 31 | 212 | 12.9 | 20.9 | 0.00 | 0.00 | 0.00 | 53 | 1008.9 |
| 20260830204418 | 31 | 232 | 14.5 | 20.9 | 0.00 | 0.00 | 0.00 | 52 | 1008.9 |
| 20260830203918 | 31 | 225 | 8.0 | 19.3 | 0.00 | 0.00 | 0.00 | 54 | 1008.8 |
| 20260830202917 | 31 | 189 | 11.3 | 27.4 | 0.00 | 0.00 | 0.00 | 51 | 1008.9 |
| 20260830202417 | 32 | 214 | 14.5 | 27.4 | 0.00 | 0.00 | 0.00 | 53 | 1009.0 |
| 20260830201918 | 31 | 198 | 6.4 | 19.3 | 0.00 | 0.00 | 0.00 | 57 | 1009.0 |
| 20260830201416 | 31 | 254 | 9.7 | 19.3 | 0.00 | 0.00 | 0.00 | 55 | 1008.9 |
| 20260830200917 | 31 | 178 | 4.8 | 17.7 | 0.00 | 0.00 | 0.00 | 56 | 1008.6 |
| 20260830200416 | 31 | 178 | 6.4 | 17.7 | 0.00 | 0.00 | 0.00 | 55 | 1008.7 |
| 20260830195916 | 31 | 219 | 8.0 | 17.7 | 0.00 | 0.00 | 0.00 | 56 | 1008.9 |
| 20260830195416 | 31 | 202 | 9.7 | 22.5 | 0.00 | 0.00 | 0.00 | 55 | 1009.0 |
| 20260830194916 | 31 | 231 | 11.3 | 22.5 | 0.00 | 0.00 | 0.00 | 55 | 1009.0 |
| 20260830194415 | 31 | 201 | 11.3 | 22.5 | 0.00 | 0.00 | 0.00 | 55 | 1009.1 |
| 20260830193915 | 31 | 200 | 9.7 | 22.5 | 0.00 | 0.00 | 0.00 | 56 | 1009.3 |
| 20260830193414 | 31 | 275 | 11.3 | 24.1 | 0.00 | 0.00 | 0.00 | 55 | 1009.4 |
| 20260830192915 | 31 | 177 | 12.9 | 25.7 | 0.00 | 0.00 | 0.00 | 54 | 1009.3 |
| 20260830192415 | 31 | 187 | 14.5 | 25.7 | 0.00 | 0.00 | 0.00 | 54 | 1009.3 |
| 20260830191916 | 31 | 213 | 9.7 | 22.5 | 0.00 | 0.00 | 0.00 | 55 | 1009.2 |
| 20260830191415 | 31 | 225 | 11.3 | 22.5 | 0.00 | 0.00 | 0.00 | 54 | 1009.1 |
| 20260830190914 | 32 | 200 | 11.3 | 19.3 | 0.00 | 0.00 | 0.00 | 55 | 1009.0 |
| 20260830190414 | 32 | 201 | 4.8 | 16.1 | 0.00 | 0.00 | 0.00 | 58 | 1008.8 |
| 20260830185914 | 31 | 169 | 8.0 | 16.1 | 0.00 | 0.00 | 0.00 | 56 | 1008.7 |
| 20260830185414 | 31 | 151 | 8.0 | 19.3 | 0.00 | 0.00 | 0.00 | 57 | 1008.8 |
| 20260830184914 | 31 | 200 | 11.3 | 19.3 | 0.00 | 0.00 | 0.00 | 58 | 1009.0 |
| 20260830184413 | 31 | 262 | 9.7 | 22.5 | 0.00 | 0.00 | 0.00 | 57 | 1009.0 |
| 20260830183914 | 31 | 240 | 11.3 | 22.5 | 0.00 | 0.00 | 0.00 | 58 | 1008.9 |
| 20260830182913 | 30 | 221 | 8.0 | 17.7 | 0.00 | 0.00 | 0.00 | 61 | 1009.0 |
| 20260830182413 | 30 | 223 | 4.8 | 20.9 | 0.00 | 0.00 | 0.00 | 59 | 1009.1 |
| 20260830181914 | 30 | 223 | 9.7 | 24.1 | 0.00 | 0.00 | 0.00 | 57 | 1009.1 |
| 20260830181413 | 30 | 229 | 12.9 | 24.1 | 0.00 | 0.00 | 0.00 | 56 | 1009.2 |
| 20260830180913 | 30 | 219 | 12.9 | 24.1 | 0.00 | 0.00 | 0.00 | 56 | 1009.4 |
| 20260830180410 | 30 | 100 | 14.5 | 22.5 | 0.00 | 0.00 | 0.00 | 58 | 1009.5 |
| 20260830175911 | 29 | 223 | 11.3 | 22.5 | 0.00 | 0.00 | 0.00 | 58 | 1009.4 |